Startpagina
METAR-TAF:

METAR-TAF

Vliegvelden :

Productieplatform

K14-fa-1c, Nederland

breedte: 53-16-10N, lengte: 3-37-40E, hoogte: 28 m

Actueel weer

Dit bericht is 56 minuten geleden gemaakt, om 05:55 UTC
Wind 15 kt uit het noordnoordoosten
Temperatuur 7°C
Vochtigheid 57%
Druk 1028 hPa
Zicht 10 km of meer
Weinig wolken op 3400 ft
Verspreide wolken op 4200 ft

METAR: EHKV 220555Z AUTO 03015KT 9999 FEW034 SCT042 07/M01 Q1028

Tijdstip: 08:51 (06:51 UTC)


TAF: ontbreekt

Waarnemingen en weersverwachtingen van meer dan 4000 vliegvelden (METAR en TAF).

De beschikbare stations zijn de gele en rode punten op de kaart.

Ga met uw muis naar het station om de naam te zien.

Klik dan om waarnemingen en weersverwachtingen te zien.

kaart wijzigen: klik op de groene knoppen met een zwart kruis om in te zoomen, op de groene knop met een streepje om uit te zoomen of op de groene pijlen voor aangrenzende kaarten.


METAR-TAF: